Weather in Velyka Andrusivka

Ukraine / Kirovohrad Region     49°03′02″N   32°57′27″E
temp.,
°C
wind,
m/s
gust,
m/s
humid.,
%
clouds,
%
prec.,
mm/h
press.,
hPa
HPBL,
m
21 april, wed
wed2100:00+7wnw598799 0.0 1007234
03:00+6wnw4996100 0.0 1009300
06:00+6w489582 0.0 1010248
09:00+10w577210 0.1 1012779
12:00+12w685690 0.6 10121556
15:00+11w4664100 1.4 10131123
18:00+12w466140 0.3 1014957
21:00+9wsw347161 0.3 101649
22 april, thu
thu2200:00+8sw34755 0.0 101751
03:00+7ssw46795 0.0 101884
06:00+6ssw47855 0.0 1018119
09:00+12ssw57655 0.0 1019372
12:00+16ssw56455 0.0 10191734
15:00+16ssw5745100 0.0 10181814
18:00+14s4758100 0.0 1018284
21:00+12s49637 0.0 1019207
23 april, fri
fri2300:00+10s5127616 0.0 1018267
03:00+8s6138121 0.0 1017302
06:00+7s7149019 0.3 1017323
09:00+12ssw8126921 0.4 1016595
12:00+16ssw8115899 0.4 10141343
15:00+10wnw6887100 4.8 1014538
18:00+8nnw7888100 4.9 1016618
21:00+5nnw7993100 9.9 1016638
24 april, sat
sat2400:00+5wnw368673 2.3 1016491
03:00+4w511910 2.3 1016323
06:00+3w37880 0.0 1016173
09:00+7w576483 0.0 1017723
12:00+8wsw8963100 0.1 10171422
15:00+8w8105599 1.3 10161845
18:00+7wnw8116174 0.6 10171630
21:00+4w510724 0.6 1019410
25 april, sun
sun2500:00+3w612731 0.0 1019344
03:00+2w511760 0.0 1020281
06:00+1w410820 0.0 1020251
09:00+6w57590 0.0 1020771
12:00+9w68425 0.0 10201956
15:00+10w7944100 0.0 10192182
18:00+6wnw6781100 0.6 1019768
21:00+5ssw348680 2.1 1019226